Tracking 18945 objects as of 20-Jan-2018
HD Live streaming from Space Station
objects crossing your sky now

FENGYUN 1C DEB

Track FENGYUN 1C DEB now!
10-day predictions


NORAD ID: 32354
Int'l Code: 1999-025CYX
Perigee: 710.9 km
Apogee: 1,032.0 km
Inclination: 102.9 °
Period: 102.2 minutes
Semi major axis: 7242 km
RCS: 0.0091 m2 (small)
Launch date: May 10, 1999
Source: People's Republic of China (PRC)
Launch site: Taiyaun Space Center, China (TSC)

Note: This is SATELLITE DEBRIS
aabbcc
Your satellite tracking list
Your tracking list is empty




NASA's NSSDC Master Catalog

Two Line Element Set (TLE):
1 32354U 99025CYX 18019.81290792  .00001035  00000-0  51852-3 0  9992
2 32354 102.9303 244.5381 0221638 318.1648  40.2748 14.08556393542412
Source of the keplerian elements: AFSPC